• în Republica Moldova
  • Lista ţărilor
  • Pe 7 zile
  • Temperatura apei
  • Hartă satelitară
  • Meteo pe hartă
  • Widget-uri
  • user-avatar
    Intrare

    Meteo pe oră la Annaba

    Astăzi, 22 August, Marţi

    Timp Temperatura Precipitaţii Vânt Presiune Umiditate
    00:00 +25°C° 0 mm 1 m/s 761 mmHg 75%
    01:00 +24°C° 0 mm 1 m/s 761 mmHg 77%
    02:00 +24°C° 0 mm 1 m/s 761 mmHg 78%
    03:00 +24°C° 0 mm 1 m/s 761 mmHg 78%
    04:00 +23°C° 0 mm 1 m/s 761 mmHg 79%
    05:00 +24°C° 0 mm 1 m/s 761 mmHg 76%
    06:00 +24°C° 0 mm 1 m/s 761 mmHg 73%
    07:00 +25°C° 0 mm 1 m/s 761 mmHg 69%
    08:00 +27°C° 0 mm 1 m/s 761 mmHg 60%
    09:00 +29°C° 0 mm 1 m/s 761 mmHg 51%
    10:00 +31°C° 0 mm 1 m/s 761 mmHg 42%
    11:00 +32°C° 0 mm 2 m/s 761 mmHg 39%
    12:00 +34°C° 0 mm 2 m/s 761 mmHg 36%
    13:00 +35°C° 0 mm 3 m/s 761 mmHg 34%
    14:00 +35°C° 0 mm 4 m/s 761 mmHg 36%
    15:00 +35°C° 0 mm 4 m/s 760 mmHg 38%
    16:00 +35°C° 0 mm 4 m/s 760 mmHg 40%
    17:00 +33°C° 0 mm 4 m/s 760 mmHg 46%
    18:00 +32°C° 0 mm 4 m/s 760 mmHg 52%
    19:00 +29°C° 0 mm 3 m/s 760 mmHg 57%
    20:00 +28°C° 0 mm 3 m/s 760 mmHg 61%
    21:00 +27°C° 0 mm 2 m/s 760 mmHg 65%
    22:00 +27°C° 0 mm 2 m/s 761 mmHg 69%
    23:00 +26°C° 0 mm 2 m/s 761 mmHg 69%

    Mâine, 23 August, Miercuri

    Timp Temperatura Precipitaţii Vânt Presiune Umiditate
    00:00 +26°C° 0 mm 1 m/s 761 mmHg 70%
    01:00 +26°C° 0 mm 1 m/s 761 mmHg 70%
    02:00 +25°C° 0 mm 1 m/s 760 mmHg 70%
    03:00 +25°C° 0 mm 1 m/s 760 mmHg 70%
    04:00 +25°C° 0 mm 1 m/s 760 mmHg 70%
    05:00 +25°C° 0 mm 1 m/s 760 mmHg 67%
    06:00 +26°C° 0 mm 1 m/s 761 mmHg 65%
    07:00 +26°C° 0 mm 1 m/s 761 mmHg 62%
    08:00 +28°C° 0 mm 2 m/s 761 mmHg 55%
    09:00 +31°C° 0 mm 2 m/s 761 mmHg 47%
    10:00 +34°C° 0 mm 2 m/s 761 mmHg 39%
    11:00 +35°C° 0 mm 3 m/s 761 mmHg 36%
    12:00 +36°C° 0 mm 3 m/s 761 mmHg 32%
    13:00 +37°C° 0 mm 4 m/s 761 mmHg 28%
    14:00 +37°C° 0 mm 5 m/s 761 mmHg 29%
    15:00 +37°C° 0 mm 5 m/s 760 mmHg 31%
    16:00 +38°C° 0 mm 6 m/s 760 mmHg 32%
    17:00 +35°C° 0 mm 5 m/s 760 mmHg 37%
    18:00 +33°C° 0 mm 5 m/s 760 mmHg 43%
    19:00 +32°C° 0 mm 4 m/s 760 mmHg 49%
    20:00 +30°C° 0 mm 4 m/s 761 mmHg 53%
    21:00 +29°C° 0 mm 3 m/s 761 mmHg 58%
    22:00 +28°C° 0 mm 3 m/s 761 mmHg 62%
    23:00 +28°C° 0 mm 2 m/s 761 mmHg 62%

    Poimâine, 24 August, Joi

    Timp Temperatura Precipitaţii Vânt Presiune Umiditate
    00:00 +27°C° 0 mm 2 m/s 761 mmHg 63%
    01:00 +27°C° 0 mm 2 m/s 761 mmHg 63%
    02:00 +27°C° 0 mm 2 m/s 761 mmHg 63%
    03:00 +27°C° 0 mm 2 m/s 761 mmHg 63%
    04:00 +27°C° 0 mm 2 m/s 760 mmHg 62%
    05:00 +27°C° 0 mm 2 m/s 760 mmHg 61%
    06:00 +27°C° 0 mm 2 m/s 761 mmHg 59%
    07:00 +28°C° 0 mm 2 m/s 761 mmHg 57%
    08:00 +30°C° 0 mm 2 m/s 761 mmHg 50%
    09:00 +33°C° 0 mm 3 m/s 761 mmHg 43%
    10:00 +35°C° 0 mm 3 m/s 761 mmHg 36%
    11:00 +36°C° 0 mm 3 m/s 761 mmHg 33%
    12:00 +38°C° 0 mm 4 m/s 761 mmHg 30%
    13:00 +40°C° 0 mm 5 m/s 760 mmHg 27%
    14:00 +39°C° 0 mm 5 m/s 760 mmHg 28%
    15:00 +39°C° 0 mm 6 m/s 760 mmHg 29%
    16:00 +39°C° 0 mm 6 m/s 759 mmHg 30%
    17:00 +38°C° 0 mm 6 m/s 760 mmHg 34%
    18:00 +35°C° 0 mm 6 m/s 760 mmHg 38%
    19:00 +34°C° 0 mm 5 m/s 760 mmHg 43%
    20:00 +33°C° 0 mm 5 m/s 760 mmHg 46%
    21:00 +32°C° 0 mm 4 m/s 760 mmHg 49%
    22:00 +30°C° 0 mm 4 m/s 761 mmHg 53%
    23:00 +29°C° 0 mm 3 m/s 761 mmHg 53%

    25 August, Vineri

    Timp Temperatura Precipitaţii Vânt Presiune Umiditate
    00:00 +29°C° 0 mm 3 m/s 760 mmHg 53%
    01:00 +29°C° 0 mm 3 m/s 760 mmHg 54%
    02:00 +29°C° 0 mm 3 m/s 760 mmHg 54%
    03:00 +29°C° 0 mm 3 m/s 760 mmHg 54%
    04:00 +28°C° 0 mm 3 m/s 760 mmHg 54%
    05:00 +29°C° 0 mm 3 m/s 760 mmHg 54%
    06:00 +29°C° 0 mm 3 m/s 760 mmHg 54%
    07:00 +29°C° 0 mm 3 m/s 760 mmHg 55%
    08:00 +31°C° 0 mm 3 m/s 760 mmHg 48%
    09:00 +35°C° 0 mm 3 m/s 760 mmHg 42%
    10:00 +37°C° 0 mm 3 m/s 760 mmHg 36%
    11:00 +39°C° 0 mm 3 m/s 760 mmHg 32%
    12:00 +40°C° 0 mm 3 m/s 759 mmHg 29%
    13:00 +42°C° 0 mm 4 m/s 759 mmHg 25%
    14:00 +42°C° 0 mm 4 m/s 759 mmHg 26%
    15:00 +42°C° 0 mm 5 m/s 758 mmHg 27%
    16:00 +42°C° 0 mm 5 m/s 758 mmHg 27%
    17:00 +40°C° 0 mm 5 m/s 758 mmHg 31%
    18:00 +38°C° 0 mm 4 m/s 758 mmHg 34%
    19:00 +36°C° 0 mm 4 m/s 758 mmHg 38%
    20:00 +35°C° 0 mm 4 m/s 758 mmHg 40%
    21:00 +34°C° 0 mm 3 m/s 759 mmHg 42%
    22:00 +33°C° 0 mm 3 m/s 759 mmHg 44%
    23:00 +33°C° 0 mm 3 m/s 759 mmHg 43%

    26 August, Sâmbătă

    Timp Temperatura Precipitaţii Vânt Presiune Umiditate
    00:00 +31°C° 0 mm 3 m/s 759 mmHg 43%
    01:00 +31°C° 0 mm 3 m/s 758 mmHg 43%
    02:00 +31°C° 0 mm 3 m/s 758 mmHg 43%
    03:00 +31°C° 0 mm 3 m/s 758 mmHg 44%
    04:00 +30°C° 0 mm 3 m/s 758 mmHg 45%
    05:00 +30°C° 0 mm 3 m/s 758 mmHg 45%
    06:00 +31°C° 0 mm 3 m/s 758 mmHg 45%
    07:00 +31°C° 0 mm 3 m/s 758 mmHg 46%
    08:00 +34°C° 0 mm 3 m/s 758 mmHg 41%
    09:00 +36°C° 0 mm 2 m/s 758 mmHg 36%
    10:00 +39°C° 0 mm 2 m/s 758 mmHg 31%
    11:00 +40°C° 0 mm 3 m/s 758 mmHg 28%
    12:00 +42°C° 0 mm 3 m/s 758 mmHg 25%
    13:00 +43°C° 0 mm 4 m/s 757 mmHg 23%
    14:00 +43°C° 0 mm 4 m/s 757 mmHg 23%
    15:00 +43°C° 0 mm 4 m/s 757 mmHg 24%
    16:00 +43°C° 0 mm 5 m/s 757 mmHg 24%
    17:00 +41°C° 0 mm 4 m/s 757 mmHg 27%
    18:00 +38°C° 0 mm 4 m/s 757 mmHg 30%
    19:00 +37°C° 0 mm 4 m/s 757 mmHg 33%
    20:00 +36°C° 0 mm 3 m/s 758 mmHg 34%
    21:00 +35°C° 0 mm 3 m/s 758 mmHg 36%
    22:00 +34°C° 0 mm 3 m/s 758 mmHg 38%
    23:00 +34°C° 0 mm 2 m/s 758 mmHg 38%

    27 August, Duminică

    Timp Temperatura Precipitaţii Vânt Presiune Umiditate
    00:00 +32°C° 0 mm 2 m/s 758 mmHg 38%
    01:00 +32°C° 0 mm 2 m/s 758 mmHg 38%
    02:00 +32°C° 0 mm 2 m/s 758 mmHg 40%
    03:00 +31°C° 0 mm 2 m/s 758 mmHg 41%
    04:00 +31°C° 0 mm 1 m/s 757 mmHg 42%
    05:00 +31°C° 0 mm 2 m/s 758 mmHg 42%
    06:00 +31°C° 0 mm 2 m/s 758 mmHg 41%
    07:00 +32°C° 0 mm 2 m/s 758 mmHg 41%
    08:00 +35°C° 0 mm 2 m/s 758 mmHg 36%
    09:00 +36°C° 0 mm 1 m/s 758 mmHg 31%
    10:00 +40°C° 0 mm 1 m/s 758 mmHg 26%
    11:00 +41°C° 0 mm 2 m/s 758 mmHg 25%
    12:00 +42°C° 0 mm 3 m/s 758 mmHg 23%
    13:00 +43°C° 0 mm 4 m/s 758 mmHg 21%
    14:00 +43°C° 0 mm 4 m/s 757 mmHg 22%
    15:00 +43°C° 0 mm 5 m/s 757 mmHg 23%
    16:00 +43°C° 0 mm 5 m/s 757 mmHg 24%
    17:00 +41°C° 0 mm 5 m/s 757 mmHg 28%
    18:00 +38°C° 0 mm 4 m/s 757 mmHg 32%
    19:00 +36°C° 0 mm 4 m/s 757 mmHg 35%
    20:00 +35°C° 0 mm 3 m/s 758 mmHg 38%
    21:00 +34°C° 0 mm 2 m/s 758 mmHg 40%
    22:00 +32°C° 0 mm 2 m/s 758 mmHg 43%
    23:00 +32°C° 0 mm 2 m/s 758 mmHg 42%
    Arată mai mult